CELTEE

operational
NORAD ID: 41850 Int'l Des: 2016-067 Owner: AFRL Country: US
LEOCIRCULARRETROGRADE

About CELTEE

Description loading...

Live Position

Loading 3D Globe...

Upcoming Passes

Altitude History

Altitude vs Time

uPlot chart will show altitude changes over time

Two-Line Element Set

1 41850U 16067C 26062.55427271 .00008701 00000-0 42545-3 0 9996
2 41850 98.0824 281.9077 0000589 130.2257 229.9027 15.18491433509843
Epoch: Mar 3, 2026 • Age: 28 hours

Current Status

Altitude 522.9 km
Velocity 7.61 km/s
Sub-Earth Point 74.48°N, 31.97°E
Launch Date Nov 11, 2016
Age 9.3 years
Type other

Technical Details

Classification Payload
Mass 1.00 kg
Dry Mass 1.00 kg
Total Mass 1.00 kg
Length 0.10 m
Diameter 0.10 m
Span 0.10 m
Shape Box
Manufacturer M42
Bus Type Cubesat 1U
Phase Status In Orbit
Owner/State AFRL/US

Large Constellations

Loading constellations...